[[{"header":{"parameterUnit":"m.s-1","parameterCategory":1,"la1":30.2991,"la2":30.254,"lo1":-89.0895,"lo2":-89.0444,"dy":0.0017,"dx":0.0017,"nx":28,"ny":28,"refTime":"2023-06-25T21:00:00:Z","depth":0,"parameterNumber":2,"parameterNumberName":"U-component_of_WINDS"},"data":[0,0,0,0,0,0,0,0,0,0,0,0,0,0,0,0,0,0,0,0,0,0,0,0,0,0,0,0,0,0,0,0,0,0,0,0,0,0,0,0,0,0,0,0,0,0,0,0,0,0,0,0,0,0,0,0,0,0,0.8137,0.8139,0,0.8294,0.8296,0.8297,0.8373,0.8373,0.8373,0.8373,0.8535,0.854,0.8544,0,0,0,0,0,0,0,0,0,0,0,0,0,0.7906,0.791,0.8137,0.8139,0.8141,0.8293,0.8296,0.8298,0.8373,0.8373,0.8373,0.8373,0.8534,0.8539,0.8544,0,0,0,0,0,0,0,0,0,0,0,0,0,0.8029,0.7911,0.8137,0.8197,0.8204,0.8293,0.8296,0.8298,0.8373,0.8373,0.8373,0.8373,0.8532,0.8539,0.8545,0.8586,0,0,0.8565,0.8568,0,0,0,0,0,0,0,0,0.8022,0.8037,0.8186,0.8193,0.8201,0.8314,0.8274,0.8395,0.8373,0.8309,0.8373,0.8373,0.8462,0.8474,0.8504,0.8594,0.8601,0.8565,0.8569,0.8572,0.8574,0,0,0,0,0,0,0,0.8013,0.8031,0.8199,0.8188,0.8197,0.8217,0.8235,0.8297,0.8384,0.8315,0.8321,0.8338,0.8466,0.8497,0.8508,0.8603,0.8565,0.8571,0.8575,0.8578,0.8737,0.8738,0,0,0,0,0,0,0.7995,0.8024,0.8194,0.8204,0.811,0.8221,0.8241,0.8278,0.8383,0.8399,0.8338,0.8341,0.8486,0.85,0.8514,0.8571,0.8572,0.8578,0.8582,0.8737,0.8738,0.8738,0,0,0,0,0,0,0.799,0.8009,0.8188,0.8115,0.814,0.8225,0.8266,0.8281,0.8312,0.8401,0.8417,0.8354,0.8487,0.8505,0.8568,0.8577,0.8581,0.8587,0.8737,0.8737,0.8738,0.8683,0,0,0,0,0,0,0.7983,0.8007,0.8023,0.8115,0.8143,0.8238,0.8267,0.8284,0.8323,0.8329,0.842,0.8435,0.8488,0.8558,0.8575,0.8586,0.8592,0.8736,0.8737,0.8738,0.8685,0.8682,0.868,0,0,0,0,0,0.7974,0.8001,0.8023,0.8043,0.8165,0.8239,0.8255,0.8314,0.8323,0.8341,0.8398,0.8432,0.8573,0.8564,0.8583,0.8597,0.8736,0.8737,0.8738,0.8686,0.8683,0.868,0,0,0,0,0,0,0.7908,0.8014,0.804,0.8097,0.8158,0.8251,0.8275,0.8309,0.8369,0.8371,0.8443,0.8463,0.852,0.8565,0.8552,0.8644,0.8658,0.8663,0.8612,0.861,0.8607,0.8596,0.8598,0,0,0,0,0,0.79,0.795,0.8041,0.8083,0.8112,0.8188,0.8222,0.8263,0.8329,0.8356,0.8418,0.8481,0.854,0.8577,0.8636,0.8692,0.8713,0.8711,0.8708,0.8706,0.8709,0.8743,0.8744,0.874,0.874,0.874,0,0,0.7884,0.7948,0.7976,0.8071,0.8123,0.8175,0.8209,0.8262,0.8302,0.8364,0.8428,0.8475,0.8551,0.8611,0.864,0.865,0.8715,0.8707,0.8704,0.8709,0.8744,0.8744,0.8744,0.8741,0.8741,0.8741,0,0,0.7881,0.7934,0.7976,0.8028,0.8106,0.8157,0.8167,0.8255,0.8289,0.8354,0.8402,0.8451,0.855,0.8603,0.8643,0.8662,0.8696,0.8679,0.8666,0.8698,0.8698,0.8699,0.8707,0.8709,0.8682,0.8682,0.8682,0,0.7852,0.7931,0.7994,0.8044,0.8086,0.8144,0.8188,0.8235,0.8329,0.8357,0.8366,0.8493,0.8548,0.8622,0.8626,0.8656,0.8671,0.8669,0.8693,0.8694,0.8696,0.8704,0.8707,0.8679,0.8679,0.868,0.868,0,0.7891,0.7946,0.797,0.8059,0.8103,0.815,0.8221,0.8258,0.8295,0.8345,0.8411,0.848,0.8554,0.8575,0.8611,0.8654,0.8658,0.8679,0.8695,0.8692,0.8702,0.8705,0.8676,0.8676,0.8677,0.8678,0,0,0.7851,0.7975,0.7983,0.8025,0.8116,0.816,0.821,0.8283,0.8314,0.8377,0.8422,0.8505,0.8526,0.8571,0.8614,0.8642,0.8655,0.8661,0.8664,0.8658,0.8708,0.8692,0.8694,0.8678,0.8679,0.868,0.8702,0,0.7862,0.7954,0.8013,0.8082,0.8134,0.8191,0.8235,0.8296,0.8344,0.8396,0.845,0.8508,0.853,0.8558,0.8589,0.8647,0.8666,0.8646,0.8722,0.8723,0.8701,0.8699,0.8682,0.87,0.8706,0.8706,0.8707,0,0.7887,0.7949,0.8023,0.811,0.8134,0.8172,0.8245,0.8293,0.8364,0.8398,0.8448,0.8492,0.8549,0.856,0.864,0.8625,0.8659,0.8693,0.8695,0.8705,0.8715,0.871,0.8707,0.8709,0.8713,0.8712,0.8712,0,0.7851,0.7953,0.8011,0.8045,0.8148,0.8174,0.8218,0.8289,0.833,0.8393,0.8421,0.8489,0.8527,0.858,0.8643,0.8644,0.8717,0.8732,0.8747,0.8745,0.876,0.8758,0.8763,0.878,0.878,0.878,0.878,0,0.7858,0.7901,0.7997,0.8032,0.8083,0.8151,0.8199,0.8249,0.8312,0.8359,0.8413,0.8456,0.8535,0.8588,0.8637,0.8696,0.8713,0.8742,0.8755,0.8738,0.8734,0.8762,0.8763,0.8781,0.8781,0.8781,0.878,0,0.7827,0.7892,0.7959,0.8052,0.8076,0.811,0.8189,0.8227,0.8278,0.8337,0.8355,0.8435,0.8501,0.8568,0.8657,0.869,0.8748,0.8765,0.8724,0.8731,0.8742,0.8741,0.8766,0.8773,0.8784,0.8783,0.8783,0,0.7827,0.7862,0.7958,0.7994,0.8037,0.8093,0.8135,0.8203,0.8244,0.8329,0.8357,0.8426,0.8486,0.8588,0.8655,0.8724,0.8743,0.8747,0.8754,0.8736,0.8745,0.8742,0.8747,0.8745,0.8744,0.8744,0.8744,0,0.7821,0.7852,0.791,0.798,0.8028,0.8087,0.8147,0.8173,0.8253,0.8298,0.8365,0.8411,0.8502,0.8571,0.8648,0.8694,0.8733,0.8741,0.8748,0.8732,0.8707,0.8722,0.8718,0.874,0.8741,0.8741,0.8741,0.8741,0.7806,0.7841,0.7914,0.7978,0.8031,0.8086,0.8126,0.8183,0.8241,0.832,0.8357,0.8425,0.8497,0.8604,0.865,0.8705,0.8716,0.8726,0.8729,0.873,0.8727,0.8697,0.8719,0.872,0.872,0.872,0.872,0,0.7804,0.7855,0.7912,0.7996,0.8046,0.8077,0.8146,0.8186,0.8246,0.831,0.8367,0.8446,0.8513,0.8586,0.8658,0.8688,0.8708,0.8705,0.8704,0.8714,0.8713,0.87,0.8688,0.8688,0.8688,0.8688,0.8688,0.8688,0.7809,0.7869,0.7909,0.7997,0.8048,0.8115,0.8152,0.8204,0.8255,0.8341,0.8397,0.8444,0.8512,0.859,0.8653,0.8673,0.8698,0.869,0.8715,0.8712,0.8714,0.8716,0.8705,0.8694,0.8694,0.8712,0.8712,0.8712]},{"header":{"parameterUnit":"m.s-1","parameterCategory":1,"la1":30.2991,"la2":30.254,"lo1":-89.0895,"lo2":-89.0444,"dy":0.0017,"dx":0.0017,"nx":28,"ny":28,"refTime":"2023-06-25T21:00:00:Z","depth":0,"parameterNumber":3,"parameterNumberName":"V-component_of_WINDS"},"data":[0,0,0,0,0,0,0,0,0,0,0,0,0,0,0,0,0,0,0,0,0,0,0,0,0,0,0,0,0,0,0,0,0,0,0,0,0,0,0,0,0,0,0,0,0,0,0,0,0,0,0,0,0,0,0,0,0,0,5.1699,5.17,0,5.1774,5.1775,5.1776,5.1764,5.1763,5.1762,5.1761,5.1829,5.1832,5.1835,0,0,0,0,0,0,0,0,0,0,0,0,0,5.1538,5.1541,5.1699,5.17,5.1701,5.1774,5.1775,5.1776,5.1765,5.1763,5.1761,5.176,5.1828,5.1831,5.1835,0,0,0,0,0,0,0,0,0,0,0,0,0,5.161,5.1542,5.1699,5.1704,5.1706,5.1774,5.1775,5.1777,5.1765,5.1763,5.1761,5.1759,5.1827,5.1831,5.1835,5.1901,0,0,5.1849,5.1851,0,0,0,0,0,0,0,0,5.1606,5.1616,5.1703,5.1704,5.1706,5.1758,5.1743,5.1818,5.1765,5.1742,5.1761,5.1758,5.1806,5.1812,5.183,5.1904,5.1907,5.1849,5.1852,5.1854,5.1855,0,0,0,0,0,0,0,5.1601,5.1612,5.1729,5.1704,5.1706,5.17,5.1708,5.1757,5.1783,5.1744,5.1743,5.1753,5.1807,5.1826,5.1832,5.1908,5.1849,5.1853,5.1856,5.1858,5.204,5.2042,0,0,0,0,0,0,5.1595,5.1608,5.1726,5.1731,5.165,5.1705,5.1714,5.1743,5.1783,5.1787,5.1754,5.1752,5.1819,5.1826,5.1834,5.1914,5.1854,5.1858,5.1861,5.2038,5.204,5.2043,0,0,0,0,0,0,5.1592,5.1606,5.1723,5.167,5.1684,5.171,5.1742,5.1746,5.1765,5.1791,5.1795,5.177,5.1818,5.1828,5.1885,5.1917,5.186,5.1864,5.2035,5.2038,5.2041,5.2075,0,0,0,0,0,0,5.1587,5.1605,5.1632,5.167,5.1687,5.1776,5.1744,5.1748,5.1774,5.1771,5.1807,5.181,5.1817,5.1879,5.189,5.1922,5.1868,5.2032,5.2037,5.204,5.2071,5.2079,5.2085,0,0,0,0,0,5.1582,5.1636,5.1633,5.1648,5.1722,5.1777,5.1787,5.1796,5.1776,5.1803,5.1819,5.1809,5.1911,5.1884,5.1897,5.1931,5.203,5.2035,5.204,5.2068,5.2077,5.2085,0,0,0,0,0,0,5.1597,5.1641,5.1639,5.1707,5.1739,5.1775,5.1809,5.1805,5.1841,5.1837,5.1844,5.1852,5.1911,5.1926,5.1895,5.1996,5.1968,5.1975,5.1985,5.1994,5.2001,5.1996,5.1872,0,0,0,0,0,5.1609,5.1653,5.1688,5.1745,5.1762,5.1783,5.1807,5.1812,5.1844,5.1856,5.1877,5.1906,5.1945,5.197,5.2007,5.2073,5.208,5.2102,5.2109,5.2115,5.2122,5.2159,5.2169,5.2058,5.2058,5.2058,0,0,5.1632,5.1662,5.1689,5.1749,5.1774,5.1818,5.1794,5.184,5.1873,5.1862,5.1919,5.1935,5.1968,5.2031,5.2059,5.2045,5.2154,5.2121,5.2126,5.2129,5.2165,5.2175,5.2185,5.2062,5.2061,5.2061,0,0,5.1699,5.1726,5.1778,5.1805,5.1844,5.1858,5.187,5.1908,5.1919,5.1977,5.1971,5.2007,5.2074,5.2098,5.2119,5.2196,5.2188,5.2207,5.2245,5.2281,5.229,5.2298,5.2326,5.2336,5.2214,5.2214,5.2214,0,5.1723,5.1792,5.1804,5.1853,5.1879,5.1875,5.1927,5.1951,5.1999,5.2016,5.2001,5.2085,5.2107,5.2176,5.2195,5.2212,5.2225,5.2204,5.2288,5.2296,5.2304,5.2331,5.2341,5.2216,5.2216,5.2215,5.2215,0,5.1819,5.1867,5.1903,5.1955,5.1985,5.2034,5.2052,5.2081,5.2083,5.2098,5.2156,5.2182,5.2225,5.2242,5.2242,5.2311,5.2301,5.2287,5.2258,5.2316,5.2342,5.2352,5.2219,5.2218,5.2218,5.2217,0,0,5.1897,5.1956,5.1969,5.1994,5.2038,5.2073,5.2122,5.2167,5.2192,5.2225,5.2266,5.2323,5.2311,5.2335,5.2338,5.237,5.2431,5.2352,5.2352,5.2366,5.2508,5.252,5.2532,5.2426,5.2428,5.2429,5.2506,0,5.1968,5.2059,5.2072,5.2151,5.2195,5.2192,5.2235,5.2265,5.228,5.2318,5.2333,5.2374,5.2354,5.2369,5.24,5.2417,5.2459,5.2411,5.2462,5.2464,5.2456,5.2545,5.2557,5.2628,5.2516,5.2518,5.2519,0,5.2064,5.2105,5.2189,5.223,5.2248,5.2287,5.233,5.2366,5.24,5.2409,5.2437,5.2437,5.2486,5.2455,5.2522,5.2489,5.251,5.2521,5.2524,5.253,5.2496,5.2554,5.2651,5.2662,5.2534,5.2533,5.2532,0,5.2114,5.2189,5.225,5.227,5.2318,5.2345,5.2366,5.2398,5.2425,5.2462,5.2479,5.2519,5.2541,5.2572,5.2582,5.2559,5.2649,5.2618,5.2656,5.2656,5.2676,5.2675,5.2779,5.2688,5.2688,5.2688,5.2687,0,5.2193,5.2245,5.2273,5.2311,5.2368,5.2382,5.2437,5.2456,5.2486,5.2525,5.2524,5.256,5.2571,5.2609,5.2617,5.2672,5.2681,5.2688,5.269,5.2689,5.2689,5.2704,5.27,5.269,5.269,5.2689,5.2689,0,5.2258,5.2279,5.2346,5.2387,5.2399,5.244,5.2473,5.2508,5.2524,5.2574,5.2586,5.2609,5.2654,5.2667,5.2719,5.2725,5.2789,5.2786,5.2779,5.278,5.2817,5.2814,5.2936,5.2952,5.285,5.2851,5.2851,0,5.2308,5.2349,5.2396,5.2424,5.2447,5.2492,5.252,5.2534,5.2563,5.2606,5.2636,5.2681,5.2718,5.2789,5.2809,5.2849,5.2847,5.2887,5.2853,5.2852,5.2849,5.2847,5.2852,5.2893,5.2895,5.2895,5.2896,0,5.2395,5.2404,5.2447,5.2495,5.253,5.2566,5.2602,5.2624,5.2643,5.2675,5.2723,5.2752,5.2808,5.2852,5.2894,5.2912,5.2907,5.2907,5.2918,5.2918,5.2913,5.2918,5.2798,5.2904,5.2903,5.2903,5.2902,5.2902,5.2454,5.2491,5.2531,5.2579,5.2608,5.2642,5.2678,5.2699,5.274,5.279,5.2794,5.2846,5.2878,5.2934,5.2955,5.2994,5.2982,5.2998,5.3002,5.3006,5.301,5.2907,5.3001,5.3001,5.3,5.3,5.3,0,5.2542,5.2568,5.2613,5.2665,5.2703,5.2698,5.2737,5.2768,5.2815,5.2848,5.2885,5.294,5.2984,5.3008,5.3051,5.3077,5.3076,5.3088,5.3087,5.3091,5.3017,5.3004,5.3088,5.3088,5.3088,5.3088,5.3088,5.3088,5.2592,5.2655,5.2669,5.2746,5.277,5.2824,5.2847,5.2877,5.2904,5.2967,5.3005,5.3021,5.305,5.3095,5.3135,5.314,5.3156,5.317,5.3175,5.3105,5.3096,5.3087,5.3075,5.3173,5.3173,5.3246,5.3246,5.3247]}]]